Tracking 22458 objects as of 2-Mar-2021
HD Live streaming from Space Station
objects crossing your sky now

BREEZE M DEB (TANK)

Track BREEZE M DEB (TANK) now!
10-day predictions


NORAD ID: 41583
Int'l Code: 2016-035C
Perigee: 381.3 km
Apogee: 13,983.4 km
Inclination: 50.8 °
Period: 261.7 minutes
Semi major axis: 13553 km
RCS: Unknown
Launch date: June 9, 2016
Source: Commonwealth of Independent States (former USSR) (CIS)
Launch site: ()

Note: This is SATELLITE DEBRIS
aabbcc
Your satellite tracking list
Your tracking list is empty




NASA's NSSDC Master Catalog

Two Line Element Set (TLE):
1 41583U 16035C   21060.62362919  .00000066  00000-0  57376-4 0  9997
2 41583  50.7923  63.3330 5018004 190.6156 152.7885  5.50216183 94935
Source of the keplerian elements: AFSPC